SCP
0 0 0 0 0 0 0 0 0 0 0 0 0 0 0 0 0 0 0 0 0 0 0 0 0 0 0 0 0 0 0 0 0 0 0 0 0 0 0 0 0 0 0 0
0 0 0 0 0 0 0 0 0 0 0 0 0 0 0 0 0 0 0 0 0 0 0 0 0 0 0 0 0 0 0 0 0 0 0 0 0 0 0 0 0 0 0 0
0 0 0 0 0 0 0 0 0 0 0 0 0 0 0 0 0 0 0 0 0 0 0 0 0 0 0 0 0 0 0 0 0 0 0 0 0 0 0 0 0 0 0 0
0 0 0 0 0 0 0 0 0 0 0 0 0 0 0 0 0 0 0 0 0 0 0 0 0 0 0 0 0 0 0 0 0 0 0 0 0 0 0 0 0 0 0 0
0 0 0 0 0 0 0 0 0 0 0 0 0 0 0 0 0 0 0 0 0 0 0 0 0 0 0 0 0 0 0 0 0 0 0 0 0 0 0 0 0 0 0 0
0 0 0 0 0 0 0 0 0 0 0 0 0 0 0 0 0 0 0 0 0 0 0 0 0 0 0 0 0 0 0 0 0 0 0 0 0 0 0 0 0 0 0 0
0 0 0 0 0 0 0 0 0 0 0 0 0 0 0 0 0 0 0 0 0 0 0 0 0 0 0 0 0 0 0 0 0 0 0 0 0 0 0 0 0 0 0 0
0 0 0 0 0 0 0 0 0 0 0 0 0 0 0 0 0 0 0 0 0 0 0 0 0 0 0 0 0 0 0 0 0 0 0 0 0 0 0 0 0 0 0 0
0 0 0 0 0 0 0 0 0 0 0 0 0 0 0 0 0 0 0 0 0 0 0 0 0 0 0 0 0 0 0 0 0 0 0 0 0 0 0 0 0 0 0 0
0 0 0 0 0 0 0 0 0 0 0 0 0 0 0 0 0 0 0 0 0 0 0 0 0 0 0 0 0 0 0 0 0 0 0 0 0 0 0 0 0 0 0 0
0 0 0 0 0 0 0 0 0 0 0 0 0 0 0 0 0 0 0 0 0 0 0 0 0 0 0 0 0 0 0 0 0 0 0 0 0 0 0 0 0 0 0 0
0 0 0 0 0 0 0 0 0 0 0 0 0 0 0 0 0 0 0 0 0 0 0 0 0 0 0 0 0 0 0 0 0 0 0 0 0 0 0 0 0 0 0 0
0 0 0 0 0 0 0 0 0 0 0 0 0 0 0 0 0 0 0 0 0 0 0 0 0 0 0 0 0 0 0 0 0 0 0 0 0 0 0 0 0 0 0 0
0 0 0 0 0 0 0 0 0 0 0 0 0 0 0 0 0 0 0 0 0 0 0 0 0 0 0 0 0 0 0 0 0 0 0 0 0 0 0 0 0 0 0 0
0 0 0 0 0 0 0 0 0 0 0 0 0 0 0 0 0 0 0 0 0 0 0 0 0 0 0 0 0 0 0 0 0 0 0 0 0 0 0 0 0 0 0 0
0 0 0 0 0 0 0 0 0 0 0 0 0 0 0 0 0 0 0 0 0 0 0 0 0 0 0 0 0 0 0 0 0 0 0 0 0 0 0 0 0 0 0 0
0 0 0 0 0 0 0 0 0 0 0 0 0 0 0 0 0 0 0 0 0 0 0 0 0 0 0 0 0 0 0 0 0 0 0 0 0 0 0 0 0 0 0 0
0 0 0 0 0 0 0 0 0 0 0 0 0 0 0 0 0 0 0 0 0 0 0 0 0 0 0 0 0 0 0 0 0 0 0 0 0 0 0 0 0 0 0 0
0 0 0 0 0 0 0 0 0 0 0 0 0 0 0 0 0 0 0 0 0 0 0 0 0 0 0 0 0 0 0 0 0 0 0 0 0 0 0 0 0 0 0 0
0 0 0 0 0 0 0 0 0 0 0 0 0 0 0 0 0 0 0 0 0 0 0 0 0 0 0 0 0 0 0 0 0 0 0 0 0 0 0 0 0 0 0 0
0 0 0 0 0 0 0 0 0 0 0 0 0 0 0 0 0 0 0 0 0 0 0 0 0 0 0 0 0 0 0 0 0 0 0 0 0 0 0 0 0 0 0 0
0 0 0 0 0 0 0 0 0 0 0 0 0 0 0 0 0 0 0 0 0 0 0 0 0 0 0 0 0 0 0 0 0 0 0 0 0 0 0 0 0 0 0 0
0 0 0 0 0 0 0 0 0 0 0 0 0 0 0 0 0 0 0 0 0 0 0 0 0 0 0 0 0 0 0 0 0 0 0 0 0 0 0 0 0 0 0 0
0 0 0 0 0 0 0 0 0 0 0 0 0 0 0 0 0 0 0 0 0 0 0 0 0 0 0 0 0 0 0 0 0 0 0 0 0 0 0 0 0 0 0 0
0 0 0 0 0 0 0 0 0 0 0 0 0 0 0 0 0 0 0 0 0 0 0 0 0 0 0 0 0 0 0 0 0 0 0 0 0 0 0 0 0 0 0 0
0 0 0 0 0 0 0 0 0 0 0 0 0 0 0 0 0 0 0 0 0 0 0 0 0 0 0 0 0 0 0 0 0 0 0 0 0 0 0 0 0 0 0 0
Wind_Speed
11 11 14 14 11 5 6 4 6 6 3 3 8 10 15 6 4 4 4 4 4 5 4 6 7 8 8 8 8 10 11 10 6 3 3 2 2 2 2 3 4 4 4 4
13 17 14 8 6 4 3 3 4 6 1 3 8 11 12 6 4 4 7 5 3 4 5 7 8 9 8 8 12 14 13 11 7 4 2 2 3 3 3 4 7 8 8 8
13 10 15 13 8 8 4 4 3 5 7 5 6 9 7 3 1 5 6 4 3 5 5 4 7 7 8 11 11 11 11 12 11 8 5 5 6 5 5 6 6 7 8 10
12 9 14 17 12 8 8 5 3 2 3 4 4 8 8 4 2 5 5 5 4 4 4 5 6 6 7 7 8 9 10 11 10 9 9 9 6 5 4 3 4 6 8 10
8 11 13 15 13 11 4 3 3 2 1 4 1 5 9 1 4 5 6 5 4 4 5 5 6 6 6 6 7 7 10 11 9 10 9 8 7 4 3 4 6 7 7 7
3 7 9 8 6 8 5 4 2 3 2 5 5 7 10 4 6 6 5 6 6 5 4 4 5 6 6 6 6 6 10 10 9 10 10 10 9 7 8 9 9 7 6 6
4 3 3 6 7 3 4 5 0 1 2 6 2 4 12 6 4 8 12 10 7 6 5 5 6 6 6 6 6 6 9 9 8 10 10 10 8 8 8 7 7 7 8 8
9 7 7 7 8 9 7 7 7 5 5 4 2 7 8 4 4 5 8 10 8 7 6 6 6 6 6 6 6 6 8 8 8 9 9 7 7 5 5 6 6 6 5 6
10 6 3 3 5 10 6 8 4 3 1 3 5 7 8 3 4 2 9 11 9 8 7 6 6 6 6 7 6 6 7 8 8 6 6 6 6 6 6 5 5 4 5 7
9 6 2 2 5 2 7 10 4 2 3 4 5 5 6 5 2 2 7 10 8 7 6 6 6 5 6 6 5 6 7 8 6 6 6 6 6 6 6 6 6 6 6 7
7 8 5 5 7 9 5 3 3 4 3 3 3 6 5 5 4 6 6 7 8 8 7 7 6 5 6 6 5 6 6 6 6 6 5 6 7 6 5 4 5 6 6 7
5 8 7 3 2 5 5 6 7 6 4 3 2 8 2 5 3 5 6 6 7 7 7 7 7 6 5 6 5 5 5 6 5 5 6 5 4 4 5 5 5 5 6 7
8 7 8 4 4 3 3 4 5 5 4 5 5 7 3 3 3 5 6 6 6 6 7 6 6 5 5 5 5 4 5 5 5 4 4 5 5 5 5 6 7 7 7 8
7 5 8 13 10 10 6 6 6 7 6 6 8 6 3 2 2 3 2 2 4 6 8 8 6 5 5 5 4 4 5 4 4 4 6 5 5 5 6 6 6 7 7 8
5 5 4 2 3 5 7 9 11 11 11 10 8 8 3 1 2 2 1 1 3 6 8 8 7 6 5 5 4 4 4 3 4 5 5 4 4 5 5 6 6 6 7 8
5 4 4 2 2 2 1 4 9 8 6 5 4 4 2 1 2 2 2 2 3 5 7 8 7 6 5 5 4 3 3 3 4 4 3 4 5 5 6 6 7 8 8 9
4 6 5 3 2 2 4 8 10 8 5 7 8 6 4 3 4 2 2 2 2 3 6 8 7 6 6 5 4 3 2 2 2 2 4 5 5 6 7 7 8 8 9 9
5 5 4 3 2 4 4 0 6 6 2 4 7 5 5 4 2 2 2 3 5 1 6 8 7 6 5 4 3 3 2 2 3 5 5 5 5 6 7 7 7 8 8 8
3 7 5 4 4 4 2 3 8 7 3 2 6 5 3 2 2 2 2 2 3 3 7 7 7 6 5 4 3 3 2 4 4 4 5 5 5 6 6 7 8 8 8 9
4 4 5 3 3 5 2 2 3 4 3 5 6 6 4 3 1 3 2 2 2 4 5 6 6 6 5 4 3 2 3 3 3 4 5 5 5 5 7 7 7 7 8 9
3 3 3 3 2 4 2 2 3 4 5 6 6 5 5 4 4 2 2 2 4 4 6 7 6 5 4 3 3 3 3 3 4 5 5 5 5 6 6 6 6 8 9 9
7 6 5 4 4 5 2 2 4 5 4 5 5 4 4 3 2 3 4 5 6 6 6 6 5 4 3 3 4 3 3 4 4 5 5 6 6 6 6 7 8 8 8 10
3 4 5 6 5 1 0 2 4 5 5 5 4 4 4 2 1 2 3 4 6 6 5 4 5 4 3 3 4 2 4 4 4 5 6 6 7 6 6 7 9 8 8 8
2 1 2 2 2 1 2 4 4 3 4 3 2 2 2 2 1 1 2 4 5 5 5 4 5 4 2 3 2 2 4 4 5 6 6 7 7 9 6 5 6 7 7 8
3 3 3 2 2 1 1 2 4 4 4 4 3 2 2 1 0 1 3 5 6 5 5 5 4 3 1 1 2 3 4 4 5 6 7 7 6 7 7 7 6 8 8 10
4 6 6 6 7 7 5 4 4 5 4 4 3 1 2 1 1 2 3 4 5 5 5 5 3 1 1 3 4 4 4 4 5 6 6 7 7 6 7 8 9 12 16 21
Wind_Direction
181 184 190 186 188 182 157 190 230 249 258 279 281 278 281 280 246 208 162 119 81 67 32 21 20 18 21 24 29 31 32 23 41 61 62 50 14 7 10 358 346 335 322 305
183 201 195 162 165 171 159 200 254 278 252 268 294 283 279 274 260 181 161 155 133 92 52 30 25 26 25 34 38 38 34 32 36 51 64 78 77 61 40 32 34 29 31 28
197 192 184 162 161 176 195 201 237 278 331 323 323 299 299 301 107 113 133 150 139 113 105 80 53 35 32 36 36 41 37 38 35 36 49 49 46 36 22 18 20 19 29 32
204 176 181 176 178 169 227 213 222 282 334 304 12 301 289 267 179 144 150 157 158 135 127 106 86 60 48 41 40 46 47 47 40 40 55 61 57 51 20 358 4 14 21 23
190 173 179 180 186 171 206 155 194 223 223 288 282 268 279 240 206 193 184 181 189 160 139 113 95 85 68 57 52 52 60 54 46 51 54 60 60 49 22 14 18 17 13 13
188 160 168 164 163 171 152 85 39 48 42 276 231 228 271 226 211 181 184 189 194 168 145 119 98 87 74 65 59 58 68 57 48 53 51 53 51 38 32 20 17 7 5 5
180 140 166 150 133 108 131 132 250 254 239 254 257 225 260 250 225 188 180 185 189 176 163 139 114 100 93 81 71 71 74 65 55 58 53 47 45 43 38 23 14 7 4 1
157 178 188 175 162 148 180 171 180 190 218 273 265 241 258 266 272 234 168 159 167 178 175 149 128 123 115 99 83 75 74 68 58 59 56 51 47 45 38 25 16 9 356 347
163 177 176 163 129 137 176 199 188 122 274 271 260 282 293 336 4 150 151 148 169 178 173 147 127 126 113 94 83 82 81 73 63 64 67 55 45 38 28 16 12 1 351 347
160 134 156 132 105 110 181 165 157 176 221 254 278 272 263 324 327 160 161 162 167 172 163 142 135 127 104 96 88 76 76 78 71 63 59 52 39 32 22 13 6 354 342 338
138 130 152 165 183 169 165 162 146 157 184 198 278 277 241 272 264 197 182 169 168 176 168 152 141 122 107 95 78 71 68 66 59 59 57 46 31 19 7 0 352 344 335 329
146 125 142 177 203 179 175 167 157 171 200 176 195 271 285 283 270 155 153 163 180 185 166 148 138 123 105 86 73 67 66 67 62 61 56 46 24 7 2 350 340 334 330 330
153 137 129 160 203 206 192 174 151 136 149 183 188 253 317 27 98 143 158 186 192 170 147 136 129 121 105 91 80 69 63 61 63 68 61 41 19 6 353 340 335 338 335 333
116 144 160 182 190 166 182 187 170 162 185 205 222 248 315 26 146 167 168 204 188 161 150 141 135 121 110 99 87 74 62 56 60 57 45 25 4 352 340 325 322 327 326 326
126 147 149 124 149 150 174 188 185 195 198 207 216 211 229 221 210 236 311 178 154 157 149 145 141 133 122 104 87 74 61 49 54 51 35 1 340 333 325 316 319 322 327 331
126 145 133 97 78 113 187 201 190 201 187 199 177 220 194 66 74 56 21 80 147 166 160 147 138 135 123 116 108 94 74 47 49 45 13 348 338 328 323 325 332 335 331 328
144 137 136 158 160 109 248 213 186 194 197 172 195 196 143 106 110 77 23 347 252 192 158 145 140 138 137 140 144 132 92 46 34 29 11 354 333 328 330 332 330 329 329 326
130 113 113 131 143 217 240 335 157 132 153 145 119 110 119 136 115 41 23 342 324 151 144 141 140 140 143 141 133 120 81 38 21 9 350 338 330 330 327 321 319 323 320 315
87 136 124 152 189 258 246 162 145 141 161 165 127 123 106 92 62 7 18 7 313 171 147 143 145 139 131 128 126 112 55 31 12 343 319 328 334 324 317 322 324 314 310 313
43 72 111 143 178 225 225 159 150 120 208 187 147 140 131 105 106 265 349 27 56 101 115 123 123 123 124 125 117 94 44 16 344 325 321 325 317 315 324 313 301 302 307 306
97 63 106 147 221 257 217 171 135 174 204 149 141 146 148 164 191 184 114 112 117 110 112 117 118 122 131 135 104 66 22 344 326 322 321 317 321 322 300 292 296 304 306 303
164 143 157 155 207 245 172 139 171 166 125 135 146 166 174 189 169 146 155 152 140 131 129 126 122 128 125 91 67 43 345 323 323 323 320 319 313 305 305 299 296 295 297 302
180 164 177 182 207 219 65 128 123 125 135 163 173 183 168 158 129 101 133 156 158 151 141 130 129 130 116 90 67 10 320 324 327 328 322 312 306 300 293 292 299 303 303 301
234 165 129 168 201 135 96 102 122 122 127 142 131 130 139 144 108 62 137 160 158 152 151 145 143 149 129 77 43 306 312 329 334 322 309 304 302 305 296 281 285 293 297 294
182 157 146 155 164 121 235 169 144 118 99 94 79 64 63 60 13 145 170 174 170 164 160 152 146 133 105 1 336 328 328 335 321 306 298 294 291 291 299 294 285 290 283 290
197 176 168 200 184 169 185 162 126 114 98 80 68 55 55 60 210 183 184 173 163 160 149 141 136 134 333 340 326 322 328 327 311 303 302 302 304 301 303 302 300 299 304 310